Location: Carrières
(48.9495°N, 2.0407°E)
Time: 06:21:47
(UTC+00:00)

Tiros 1 despin weight - Pass Details

Date: 25 April 2024
Orbit: 578 x 620 km, 48.2° (Epoch: 27 May)

Event Time Altitude Azimuth Distance (km) Brightness Sun altitude
Rises 10:40:51 0° 221° (SW) 2,800 ? 51.7°
Reaches altitude 10° 10:43:17 10° 211° (SSW) 1,909 ? 51.9°
Maximum altitude 10:47:08 31° 149° (SSE) 1,055 ? 52.2°
Drops below altitude 10° 10:51:03 10° 87° (E) 1,941 ? 52.5°
Sets 10:53:33 0° 77° (ENE) 2,855 ? 52.6°
